{"data":{"norad_id":89005,"epoch":"2026-09-17T17:28:35.304960Z","epoch_age_seconds":253729,"freshness":"STALE","line1":"1 89005U          26260.72818640  .00001765  00000+0  40085-3 0  9992","line2":"2 89005  97.8502  74.4007 0186635 251.5794 106.5031 14.47048939574426","mean_motion":14.47048939,"eccentricity":0.0186635,"inclination_deg":97.8502,"raan_deg":74.4007,"arg_perigee_deg":251.5794,"mean_anomaly_deg":106.5031,"bstar":0.00040085,"rev_number":57442,"period_min":99.512874871746,"perigee_km":602.54167457035,"apogee_km":868.0650632201,"semimajor_km":7113.4403688952,"source":"CELESTRAK","updated_at":"2026-09-20T09:00:32.481474Z"}}